map of RAK home
RAK - Airport
Location
City:  Marrakech, Morocco
Name:Menara
ICAO:GMMX
IATA:RAK

Details
Type:Airport (Aerodrome, Airfield)
Use:Public/Civil, Military, International (customs port of entry)
Latitude:3136'25"N (31.606886)
Longitude:802'11"W (-8.036299)
Datum:WGS 1984
Elevation:1545 ft (471 m)
Variation:2.03W (WMM2015 magnetic declination)
0.11 annual change
Runways:1
Longest:10170 × 148 ft (3100 × 45 m), paved

Time
Time Zone:UTC+0 (DST+1)
Local Time:

Weather
METAR:GMMX 192030Z 04009KT 9999 FEW033 SCT100 36/10 Q1013 NOSIG
TAF:GMMX 191700Z 1918/2024 34012KT 8000 SCT033 FEW040CB
BECMG 1921/1923 24006KT CAVOK
TEMPO 2015/2021 32014KT TSRA SCT033 FEW040CB

Related Locations
Nearby:
Farthest:KAT: 12180 mi / 19603 km
Kaitaia, NTL, NZ

Find:

   beyond  
but within

Other Information
Maps:
NOTAMs:
Links:
Sources:

  
flag of Morocco   

Sectional Chart

Flight Planning
at skyvector.com

Satellite Image

Google Maps Satellite view

 

Copyright © 2004-2017 Karl L. Swartz. All rights reserved.
The Great Circle Mapper name and logo are trademarks of the Great Circle Mapper.
All other trademarks mentioned herein belong to their respective owners.
Please see credits for attibutions and further copyright information.

  Follow gcmap on Facebook Follow gcmap on Twitter Follow gcmap on Google+ GCmap on LinkedIn

hCard Microformat

Geo Microformat